Theta_e
281 281 280 280 280 281 280 279 278 278 278 277 276 276 276 276 276 275 274 274 274 273 273 273 273 273 274 273 273 273 273 272 273 273 274 274 274 274 273 273 273 273
280 281 282 281 281 281 280 279 279 278 277 276 276 275 276 276 275 275 274 274 275 274 274 273 273 273 272 272 272 272 272 272 272 275 274 274 274 274 273 273 273 274
280 280 280 279 279 279 279 279 279 278 277 276 276 276 276 276 275 274 274 274 273 273 273 273 273 273 273 272 272 272 272 272 273 274 274 274 274 274 274 274 273 273
280 280 280 280 280 279 279 279 278 278 277 276 275 276 276 276 275 274 273 276 273 273 273 273 273 272 272 272 272 272 272 273 273 274 274 274 274 274 274 274 274 274
280 279 279 279 279 280 279 278 278 277 276 276 275 276 276 275 274 273 273 273 273 273 273 273 272 272 273 272 272 271 272 273 274 274 273 273 274 274 274 274 273 273
280 279 279 279 279 279 278 278 277 277 276 275 275 276 275 274 274 273 273 273 273 273 272 272 272 272 272 272 272 271 272 272 273 274 273 273 273 273 273 273 273 272
279 279 279 279 279 279 278 277 277 277 276 276 276 275 275 274 274 274 273 273 273 273 272 272 272 272 272 272 271 271 272 272 273 273 273 273 273 273 273 273 273 273
279 278 278 278 278 278 278 277 277 277 276 276 275 275 275 274 274 274 273 273 272 272 272 272 272 272 271 271 271 271 271 273 272 272 272 272 273 272 273 273 273 272
279 278 278 278 278 278 277 277 277 277 277 276 275 275 275 274 274 273 273 273 272 272 272 272 272 271 271 271 271 271 271 272 272 272 272 272 272 272 272 273 272 272
278 278 278 278 277 277 277 277 277 277 277 276 275 275 274 274 274 273 273 272 272 272 271 271 271 271 271 271 271 271 271 271 271 271 271 272 272 272 272 272 272 272
278 278 277 277 277 277 277 277 277 276 276 276 275 275 274 274 274 273 272 272 272 271 271 271 271 271 271 271 271 271 271 270 270 269 270 271 271 271 272 272 273 273
278 277 277 277 277 277 277 277 276 276 276 276 275 274 274 274 273 273 273 272 272 271 271 271 271 271 271 271 271 271 270 270 269 269 269 269 270 270 271 273 273 273
277 277 277 277 277 277 277 277 276 276 275 275 275 274 273 273 273 273 273 272 272 272 271 271 271 271 271 271 271 271 269 268 268 268 269 270 270 272 273 274 274 274
278 277 277 277 277 277 277 276 276 275 275 275 275 273 273 273 273 272 273 273 272 272 272 272 271 271 271 270 270 269 268 267 268 269 270 271 272 273 274 274 274 272
278 277 277 277 277 277 276 276 276 275 275 275 274 273 273 273 273 273 272 272 272 272 272 272 271 271 270 270 268 267 266 267 268 270 271 271 272 273 274 274 272 269
278 277 277 277 277 276 276 276 275 275 275 274 274 273 273 273 273 272 272 272 271 271 271 271 271 271 273 274 274 270 265 268 270 271 272 272 272 273 274 273 271 268
278 277 277 276 276 276 276 276 275 275 274 274 273 273 273 273 273 272 272 272 271 271 271 271 272 272 274 275 275 276 271 269 271 271 272 272 273 273 273 271 269 266
278 277 277 276 276 276 276 276 275 275 274 273 273 272 273 273 272 272 272 272 271 271 271 271 272 274 275 275 276 276 275 273 272 272 272 273 273 273 273 270 268 266
279 278 277 276 276 276 276 276 275 275 274 273 272 273 273 272 272 272 271 271 271 270 271 272 272 274 275 276 276 276 276 275 273 273 272 272 273 273 272 270 268 268
279 278 277 277 276 276 276 275 275 274 274 274 273 273 272 272 272 272 272 271 271 271 271 272 272 274 275 276 276 276 276 275 273 273 273 273 273 272 271 270 268 267
279 278 278 277 276 276 275 275 274 274 274 273 273 273 272 272 272 272 272 272 272 272 271 271 272 274 275 276 276 276 276 275 272 272 272 273 273 272 271 270 268 268
279 278 278 277 276 276 275 274 274 274 274 274 273 273 273 273 273 272 272 272 272 272 271 270 271 275 276 276 276 276 276 273 272 272 272 272 272 272 271 270 269 269
278 277 277 277 276 275 275 274 274 274 274 274 273 273 272 272 272 272 272 272 272 272 271 271 271 274 276 276 276 276 275 271 270 270 271 271 272 272 271 270 269 268
278 277 277 277 276 275 275 275 275 275 274 274 273 273 272 272 272 272 272 272 272 271 271 271 271 273 275 276 276 276 274 270 270 270 270 271 271 271 270 269 269 272
278 277 277 277 276 276 275 275 274 274 274 274 274 273 272 272 272 272 272 272 272 272 273 272 271 272 275 275 276 276 274 270 269 268 268 270 270 269 269 269 269 269
278 276 276 276 276 276 276 275 275 274 274 273 273 273 272 272 272 271 271 271 272 271 272 272 271 271 273 275 275 275 275 271 269 268 268 269 269 269 268 268 268 267
Wind_Speed
7 7 9 9 9 8 8 9 8 9 8 8 8 8 8 7 7 7 6 5 4 4 4 3 3 3 4 4 3 3 4 5 6 5 6 6 6 7 9 10 10 9
8 8 7 7 7 7 7 8 8 9 9 8 7 6 6 6 6 6 6 5 5 5 5 5 4 4 5 4 4 5 5 6 6 5 6 8 8 9 9 11 10 10
8 7 8 10 10 10 9 8 7 8 8 7 6 6 6 6 6 6 6 6 6 6 6 6 5 6 5 5 5 4 5 5 6 7 8 8 7 7 7 9 9 11
9 9 9 9 9 10 9 9 8 7 7 8 7 7 6 6 6 6 6 7 6 6 6 6 7 6 6 6 5 5 5 6 6 6 7 7 6 7 7 7 9 9
10 9 8 8 7 9 9 9 10 8 8 8 7 7 7 7 7 6 6 6 6 6 6 6 6 6 6 6 5 5 5 6 7 7 7 8 8 7 5 7 8 10
8 8 8 9 8 10 10 10 9 9 9 8 9 8 7 7 7 7 7 7 7 7 6 6 6 6 6 6 6 6 6 6 6 8 8 8 5 5 5 7 9 11
10 10 10 8 8 9 9 9 9 9 9 8 8 8 8 8 8 8 7 7 7 7 7 6 6 6 6 6 6 6 6 6 7 7 7 6 7 8 6 6 8 10
11 9 9 9 9 10 10 9 9 9 9 9 9 8 9 9 9 7 7 7 7 6 6 6 6 6 5 5 6 6 7 6 7 7 7 7 6 8 7 7 8 9
10 10 10 11 12 10 11 10 10 9 9 10 9 8 8 8 8 8 7 7 6 6 6 6 7 6 6 6 6 6 6 6 7 7 7 7 7 7 9 8 9 10
11 10 11 12 12 11 12 11 10 9 9 10 9 9 9 8 7 7 7 7 7 7 7 6 7 7 6 6 7 6 6 6 6 6 6 6 6 7 8 9 10 11
11 11 12 13 13 10 11 10 10 9 9 10 10 9 9 8 8 7 7 7 7 7 7 7 7 7 7 7 6 6 6 6 6 5 5 5 6 7 10 10 11 11
11 11 12 13 12 10 10 11 10 10 10 9 10 10 10 9 9 8 8 8 7 7 7 7 7 7 7 7 6 6 6 5 5 4 4 4 5 8 10 11 11 11
11 11 10 11 11 10 10 11 12 11 11 11 10 11 11 10 10 10 8 8 7 7 8 7 7 6 6 6 6 6 6 5 5 4 3 5 7 10 12 12 11 9
10 9 10 10 10 10 11 12 11 11 11 11 10 11 11 11 11 10 9 8 8 8 7 6 6 6 6 6 5 5 5 4 3 3 5 8 10 11 11 11 9 7
8 8 8 9 10 10 10 11 11 11 11 11 10 10 9 10 10 10 10 9 8 8 7 6 6 6 5 5 5 6 5 4 3 5 8 10 10 11 11 9 6 5
8 8 8 8 10 10 11 11 11 11 11 11 10 10 9 9 9 9 9 9 9 8 7 7 6 5 8 14 11 6 5 5 6 8 9 9 10 10 9 7 6 6
8 9 8 10 9 9 9 11 11 10 10 10 10 10 10 10 10 10 10 9 9 8 8 8 7 6 14 14 15 15 9 7 7 8 8 9 10 10 8 7 5 5
9 9 10 10 10 10 10 9 7 9 10 11 10 11 10 9 10 10 9 9 8 8 8 8 7 11 16 15 15 15 13 7 6 8 8 8 8 8 7 5 5 5
9 10 11 11 11 10 8 8 9 9 10 10 11 9 8 10 9 9 9 9 8 9 9 8 7 13 15 16 15 15 15 11 7 7 8 8 8 8 7 6 6 6
9 10 11 11 11 10 9 10 9 10 10 8 9 9 10 9 9 11 10 10 9 9 8 8 8 12 16 15 15 15 14 12 6 7 8 9 9 8 7 6 6 6
9 10 11 11 11 10 9 9 10 10 10 9 9 10 10 10 10 10 10 9 9 9 8 8 8 15 15 15 14 14 14 11 5 6 6 8 8 7 6 5 5 6
9 10 11 10 10 11 11 11 10 10 10 9 8 8 8 7 7 9 10 10 9 9 9 8 8 16 16 15 15 14 14 7 5 6 6 7 7 6 6 5 4 5
8 9 10 11 10 11 12 11 11 10 8 6 8 9 10 10 10 9 8 8 9 9 10 8 8 13 16 15 15 16 11 5 5 5 5 6 7 5 4 4 4 5
8 9 10 10 10 12 12 11 10 9 9 9 10 10 9 9 9 7 8 8 9 9 9 8 8 11 16 15 15 16 11 5 5 5 5 6 5 4 3 4 6 15
8 8 9 10 11 11 11 11 11 10 9 9 9 8 8 7 8 8 7 6 8 8 13 11 7 10 16 15 15 15 11 4 5 4 5 4 4 4 3 5 5 6
7 8 9 9 11 10 10 10 9 8 9 9 9 8 8 7 8 8 8 8 7 7 8 10 9 8 10 15 15 15 15 7 4 5 5 4 3 4 5 4 5 5
Wind_Direction
185 178 174 171 174 174 174 172 174 175 175 173 175 179 171 163 149 152 156 162 160 162 172 176 190 198 204 209 216 216 233 241 237 236 243 244 251 257 262 265 269 270
187 179 176 170 170 174 178 175 174 172 172 170 169 161 155 146 151 150 158 167 176 174 176 183 187 190 202 211 211 212 226 232 236 241 239 249 254 259 261 265 268 270
184 182 180 179 179 177 177 175 172 170 167 165 159 155 151 147 154 155 165 172 176 181 183 185 192 194 197 202 213 225 230 236 243 241 249 248 252 254 261 268 268 271
189 188 186 185 180 178 173 171 174 166 162 162 166 157 149 153 155 163 172 181 180 183 182 189 192 196 196 201 205 219 228 239 237 244 250 254 253 254 254 261 269 273
186 188 191 188 183 176 174 175 175 175 172 164 154 155 154 157 161 172 177 182 180 186 191 193 194 194 196 201 202 208 227 233 239 239 244 252 251 251 262 273 275 278
190 190 190 191 188 178 182 180 177 175 172 166 164 158 162 161 170 179 184 191 185 188 189 192 198 196 197 200 201 206 214 231 237 238 243 244 251 263 268 269 274 278
186 187 191 191 192 187 183 181 176 176 176 168 156 167 162 170 179 184 187 187 188 187 189 192 194 203 200 198 203 211 215 225 235 241 246 253 264 266 269 271 274 277
187 186 186 189 192 190 189 181 180 181 175 165 169 169 167 175 180 183 187 189 188 191 189 193 199 204 205 199 206 206 216 221 235 242 244 248 249 260 259 265 272 273
187 187 184 189 191 194 192 182 185 180 177 172 170 170 170 175 178 183 187 189 190 190 191 197 202 204 203 204 208 213 221 228 233 237 243 245 248 259 268 268 266 270
192 188 188 191 193 195 193 184 183 182 177 175 171 168 172 175 177 181 184 190 194 194 194 200 202 201 206 206 210 213 219 226 227 240 246 249 250 257 263 268 266 266
196 191 195 197 196 194 191 182 185 181 181 178 172 174 173 171 176 180 187 193 198 198 200 203 203 202 203 206 209 211 217 224 230 234 240 242 248 254 262 265 267 264
199 199 202 200 196 193 185 187 187 185 183 180 177 177 174 175 176 178 187 196 198 201 203 205 204 202 202 205 207 212 218 221 224 232 233 242 251 262 262 262 260 255
206 205 200 200 199 194 185 190 189 185 183 183 181 182 178 178 178 178 183 189 198 201 206 205 205 202 203 205 205 208 214 222 228 229 249 257 260 256 260 259 256 251
215 210 202 202 200 195 193 194 188 185 184 183 182 185 183 181 179 181 181 183 194 201 204 202 201 203 205 205 207 208 212 210 204 230 249 255 258 256 255 258 255 249
215 212 211 207 203 200 196 195 191 190 185 183 184 185 188 183 181 178 179 184 189 194 198 200 202 207 201 199 203 211 191 203 217 239 251 259 266 265 263 259 252 253
210 210 212 211 210 209 201 198 194 190 186 185 184 186 186 185 183 182 182 184 185 189 193 199 203 199 211 218 214 194 198 202 221 241 252 262 269 270 269 262 255 252
205 207 204 211 213 215 212 205 198 189 187 187 185 185 187 186 186 186 186 186 185 188 192 197 201 201 217 222 223 220 199 198 228 249 257 262 262 266 267 269 261 256
209 205 204 208 208 213 213 213 200 191 190 189 190 190 189 184 189 191 185 184 186 190 198 201 200 206 218 221 224 226 226 217 229 249 257 260 265 269 270 269 273 272
211 207 208 208 208 208 205 204 205 200 195 191 194 191 184 192 190 188 191 185 185 190 199 203 202 211 217 221 223 225 228 232 239 249 256 262 268 271 273 270 273 273
214 212 212 212 207 203 196 202 200 207 203 189 183 185 194 194 192 193 191 189 188 190 195 199 202 209 219 223 225 226 228 233 235 244 257 264 267 270 270 271 267 267
219 216 217 214 208 203 197 197 201 203 202 199 191 193 191 192 190 191 195 192 190 189 190 199 200 207 215 221 223 226 228 232 233 245 255 263 267 268 275 273 277 271
220 222 219 216 209 207 208 204 202 203 203 199 195 199 199 193 192 195 195 189 189 187 190 198 201 208 212 217 221 223 225 225 231 243 249 264 269 272 272 271 273 277
219 219 221 217 212 211 213 210 205 204 200 182 195 197 198 193 194 197 190 182 185 188 193 197 196 209 210 214 218 222 221 208 218 230 248 259 267 266 270 280 281 280
217 212 219 218 214 215 214 211 207 206 202 193 199 199 198 191 183 188 191 186 186 192 192 191 197 205 210 213 217 220 216 201 219 230 246 253 260 263 276 281 284 286
214 210 216 219 219 219 212 210 207 204 203 197 203 204 205 188 186 190 187 184 188 187 195 198 198 206 210 211 212 214 215 192 211 226 235 249 257 270 271 279 284 298
207 208 214 216 222 220 213 211 203 200 200 199 200 198 195 190 187 188 186 189 183 180 196 199 197 203 209 209 209 213 215 200 197 220 227 229 248 261 284 274 275 290